Location: Berg
(48.4333°N, 13.9167°E)
Time: 08:29:15
(UTC+00:00)

Resurs 01 Rocket - Pass Details

Date: 18 September 2020
Orbit: 633 x 645 km, 98.0° (Epoch: 24 October)

Event Time Altitude Azimuth Distance (km) Brightness Sun altitude
Exits shadow 19:19:15 58° 113° (ESE) 755 1.6 -21.3°
Maximum altitude 19:19:49 65° 73° (ENE) 715 1.6 -21.4°
Drops below altitude 10° 19:24:15 10° 352° (N) 2,053 4.7 -22.1°
Sets 19:26:29 0° 349° (N) 2,967 5.6 -22.4°
